Weather History for Philip, SD

Change the Weather History Date:

Wednesday, January 4, 2012

  Actual Average Record
Temperature  
Mean Temperature 44 °F 21 °F  
Max Temperature 62 °F 34 °F 62 °F (2012)
Min Temperature 26 °F 9 °F -32 °F (1950)
Degree Days  
Heating Degree Days 21 44  
Month to date heating degree days 137 176  
Since 1 July heating degree days 2625 3111  
Cooling Degree Days 0 0  
Month to date cooling degree days 0 0  
Year to date cooling degree days 0 0  
Moisture  
Dew Point 23 °F    
Average Humidity 52    
Maximum Humidity 81    
Minimum Humidity 22    
Precipitation  
Precipitation 0.00 in 0.01 in 0.49 in (1949)
Month to date precipitation 0.00 0.04  
Year to date precipitation 0.00 0.04  
Sea Level Pressure  
Sea Level Pressure 30.16 in    
Wind  
Wind Speed 10 mph (West)    
Max Wind Speed 18 mph    
Max Gust Speed 22 mph    
Visibility 10 miles    
Events      
T = Trace of Precipitation, MM = Missing Value Source: NWS Daily Summary

Daily Weather History Graph

Daily Weather History Graph

Search for Another Location

Airport:

Trip Planner

Search our weather history database for the weather conditions in past years. The results will help you decide how hot, cold, wet, or windy it might be!

Date:

Astronomy

Jan. 04, 2012 Rise Set
Actual Time 7:21 AM MST 4:21 PM MST
Civil Twilight 6:48 AM MST 4:54 PM MST
Nautical Twilight 6:12 AM MST 5:30 PM MST
Astronomical Twilight 5:37 AM MST 6:05 PM MST
Moon 12:46 PM MST (1/4) 3:10 AM MST (1/4)
Length of Visible Light 10h 05m
Length of Day
8h 59m
Waxing Gibbous, 81% of the Moon is Illuminated
Jan 4
Waxing Gibbous
Jan 9
Full
Jan 16
Last Quarter
Jan 23
New
Jan 30
First Quarter

Hourly Weather History & Observations

Time (MST) Temp. Windchill Dew Point Humidity Pressure Visibility Wind Dir Wind Speed Gust Speed Precip Events Conditions
12:55 AM 28.9 °F 21.1 °F 21.9 °F 75% 30.24 in 10.0 mi West 8.1 mph - N/A   Clear
1:55 AM 27.0 °F - 21.0 °F 78% 30.25 in 10.0 mi Calm Calm - N/A   Clear
2:55 AM 30.0 °F 21.1 °F 23.0 °F 75% 30.24 in 10.0 mi West 10.4 mph - N/A   Clear
3:55 AM 28.9 °F 19.8 °F 21.9 °F 75% 30.24 in 10.0 mi West 10.4 mph - N/A   Clear
4:55 AM 28.0 °F 18.6 °F 21.9 °F 78% 30.24 in 10.0 mi West 10.4 mph - N/A   Clear
5:55 AM 28.0 °F 19.3 °F 21.9 °F 78% 30.22 in 10.0 mi West 9.2 mph - N/A   Clear
6:55 AM 30.0 °F 20.5 °F 23.0 °F 75% 30.20 in 10.0 mi West 11.5 mph - N/A   Clear
7:55 AM 30.9 °F 24.3 °F 23.0 °F 72% 30.22 in 10.0 mi WNW 6.9 mph - N/A   Clear
8:55 AM 37.0 °F 28.9 °F 26.1 °F 65% 30.22 in 10.0 mi West 12.7 mph - N/A   Clear
9:55 AM 42.1 °F 34.9 °F 26.1 °F 53% 30.20 in 10.0 mi West 13.8 mph - N/A   Clear
10:55 AM 50.0 °F - 25.0 °F 38% 30.16 in 10.0 mi West 12.7 mph - N/A   Clear
11:55 AM 57.9 °F - 21.9 °F 25% 30.12 in 10.0 mi West 13.8 mph - N/A   Clear
12:55 PM 60.1 °F - 21.0 °F 22% 30.12 in 10.0 mi West 16.1 mph - N/A   Clear
1:55 PM 60.1 °F - 24.1 °F 25% 30.10 in 10.0 mi WSW 13.8 mph - N/A   Clear
2:55 PM 57.0 °F - 24.1 °F 28% 30.11 in 10.0 mi West 10.4 mph - N/A   Clear
3:55 PM 53.1 °F - 24.1 °F 32% 30.12 in 10.0 mi West 8.1 mph - N/A   Clear
4:55 PM 48.0 °F - 23.0 °F 37% 30.14 in 10.0 mi Calm Calm - N/A   Clear
5:55 PM 43.0 °F 38.2 °F 23.0 °F 45% 30.14 in 10.0 mi West 8.1 mph - N/A   Clear
6:55 PM 41.0 °F 35.2 °F 21.9 °F 47% 30.14 in 10.0 mi West 9.2 mph - N/A   Clear
7:55 PM 39.0 °F 32.8 °F 21.9 °F 50% 30.13 in 10.0 mi West 9.2 mph - N/A   Clear
8:55 PM 39.0 °F 31.8 °F 23.0 °F 53% 30.12 in 10.0 mi West 11.5 mph - N/A   Clear
9:55 PM 39.0 °F 31.4 °F 23.0 °F 53% 30.10 in 10.0 mi West 12.7 mph - N/A   Clear
10:55 PM 39.0 °F 31.8 °F 24.1 °F 55% 30.07 in 10.0 mi West 11.5 mph - N/A   Clear
11:55 PM 39.9 °F 32.5 °F 24.1 °F 53% 30.04 in 10.0 mi West 12.7 mph - N/A   Clear